Search the data

BODC Cruise Metadata Report for Valdivia cruise VLD137

Introduction

This report collates information from the BODC cruise inventory and oceanographic databases. It presents

Cruise Inventory Information

Long name Valdivia cruise VLD137
Short name VLD137
Objectives and Narrative The analysis of biological, microbiological and biogeochemical processes at the ocean margin.
Ship Valdivia
Departure Port Plymouth, United Kingdom
Departure Date 1993-06-23
Arrival Port Plymouth, United Kingdom
Arrival Date 1993-07-16
Principal Scientist(s) Thomas Raabe (University of Hamburg, Department of Chemistry)
Responsible Organisation Plymouth Marine Laboratory
Associated Project(s) OMEX
IHB Sea Areas Visited Celtic Sea, North East Atlantic Ocean (limit 40W)
Marsden Squares Visited
Work Area Description Celtic Shelf (Atlantic Ocean)
Work Area Bounding Polygon
Southern Limit unknown
Northern Limit unknown
Western Limit unknown
Eastern Limit unknown

Cruise Inventory Datasets

Physical oceanography  
Current meters Quantity: number of samples = 6
Description: A number of CTD casts were made throughout the cruise.  
Subsurface temperature and salinity measurements Quantity: number of samples = 6
Description: A number of CTD casts were made throughout the cruise.  
Water bottle stations Quantity: number of samples = 3
Description: A number of water samples were collected during the cruise.  
Geology and geophysics  
Core - soft bottom Quantity: number of cores = 3
Description: A number of multicore samples were collected during the cruise.  

Cruise Inventory Mooring/Buoy Operations

No information on datasets is currently available

Summary of BODC Data Holdings for the Cruise

National Oceanographic Database

Summary

# Series Instrument Description Parameters
74 Bottle station Ammonium and ammonia concentration parameters in water bodies
Nitrate concentration parameters in the water column
Nitrite concentration parameters in the water column
Phosphate concentration parameters in the water column
Quality control flags
Reference numbers
Silicate concentration parameters in the water column
Vertical spatial coordinates
9 Bottle station Chlorophyll pigment concentrations in water bodies
Phaeopigment concentrations in the water column
Quality control flags
Reference numbers
Vertical spatial coordinates
8 Bottle station Carotenoid and flavenoid pigment concentrations in water bodies
Chlorophyll pigment concentrations in water bodies
Phaeopigment concentrations in the water column
Quality control flags
Reference numbers
Vertical spatial coordinates
66 CTD/STD cast Density of the water column
Salinity of the water column
Temperature of the water column
Vertical spatial coordinates

Note: Parameter terms are taken from the BODC Parameter Discovery Vocabulary XML (SKOS)

Full List

BODC Reference Instrument Description Date/Time Location  
919568 CTD/STD cast 1993-06-28 18:34Z 49° 30' N, 11° 30' W Click for more
919581 CTD/STD cast 1993-07-01 13:15Z 48° 28' N, 14° 56' W Click for more
919593 CTD/STD cast 1993-07-01 15:12Z 48° 28' N, 14° 55' W Click for more
919600 CTD/STD cast 1993-07-01 17:07Z 48° 28' N, 14° 55' W Click for more
919612 CTD/STD cast 1993-07-01 19:05Z 48° 28' N, 14° 56' W Click for more
919624 CTD/STD cast 1993-07-02 04:09Z 49° 0' N, 13° 30' W Click for more
919636 CTD/STD cast 1993-07-02 05:16Z 49° 0' N, 13° 30' W Click for more
919648 CTD/STD cast 1993-07-02 11:09Z 48° 58' N, 13° 30' W Click for more
919661 CTD/STD cast 1993-07-02 13:35Z 48° 58' N, 13° 30' W Click for more
919673 CTD/STD cast 1993-07-02 15:02Z 48° 58' N, 13° 31' W Click for more
919685 CTD/STD cast 1993-07-02 17:22Z 48° 58' N, 13° 31' W Click for more
919697 CTD/STD cast 1993-07-02 19:16Z 48° 58' N, 13° 31' W Click for more
919704 CTD/STD cast 1993-07-03 03:53Z 49° 19' N, 12° 31' W Click for more
919716 CTD/STD cast 1993-07-03 05:08Z 49° 19' N, 12° 31' W Click for more
919728 CTD/STD cast 1993-06-27 14:21Z 49° 49' N, 5° 30' W Click for more
919741 CTD/STD cast 1993-06-28 09:53Z 49° 30' N, 10° 30' W Click for more
919753 CTD/STD cast 1993-06-28 14:31Z 49° 30' N, 11° 0' W Click for more
919765 CTD/STD cast 1993-07-01 11:01Z 48° 30' N, 14° 55' W Click for more
919777 CTD/STD cast 1993-07-04 11:04Z 49° 27' N, 11° 28' W Click for more
919789 CTD/STD cast 1993-07-04 13:11Z 49° 27' N, 11° 29' W Click for more
919790 CTD/STD cast 1993-07-04 14:59Z 49° 27' N, 11° 28' W Click for more
919808 CTD/STD cast 1993-07-04 17:19Z 49° 27' N, 11° 28' W Click for more
919821 CTD/STD cast 1993-07-04 19:06Z 49° 27' N, 11° 27' W Click for more
919833 CTD/STD cast 1993-07-05 04:35Z 49° 30' N, 10° 30' W Click for more
919845 CTD/STD cast 1993-07-05 11:00Z 49° 28' N, 10° 31' W Click for more
919857 CTD/STD cast 1993-06-30 08:13Z 48° 51' N, 13° 57' W Click for more
919869 CTD/STD cast 1993-06-30 08:55Z 48° 53' N, 13° 59' W Click for more
919870 CTD/STD cast 1993-06-30 18:05Z 48° 30' N, 15° 0' W Click for more
919882 CTD/STD cast 1993-06-30 18:51Z 48° 30' N, 15° 1' W Click for more
919894 CTD/STD cast 1993-07-01 03:56Z 48° 30' N, 15° 0' W Click for more
919901 CTD/STD cast 1993-07-01 05:28Z 48° 30' N, 15° 0' W Click for more
919913 CTD/STD cast 1993-07-08 11:13Z 48° 40' N, 12° 0' W Click for more
919925 CTD/STD cast 1993-07-08 11:48Z 48° 40' N, 12° 0' W Click for more
919937 CTD/STD cast 1993-07-09 03:02Z 48° 20' N, 11° 59' W Click for more
919949 CTD/STD cast 1993-07-09 05:19Z 48° 20' N, 12° 0' W Click for more
919950 CTD/STD cast 1993-07-09 12:41Z 48° 19' N, 11° 30' W Click for more
919962 CTD/STD cast 1993-07-09 13:17Z 48° 19' N, 11° 30' W Click for more
919974 CTD/STD cast 1993-07-03 11:06Z 49° 19' N, 12° 29' W Click for more
919986 CTD/STD cast 1993-07-03 13:06Z 49° 19' N, 12° 29' W Click for more
919998 CTD/STD cast 1993-07-03 15:04Z 49° 20' N, 12° 28' W Click for more
920011 CTD/STD cast 1993-07-03 17:05Z 49° 21' N, 12° 28' W Click for more
920023 CTD/STD cast 1993-07-03 19:05Z 49° 20' N, 12° 27' W Click for more
920035 CTD/STD cast 1993-07-04 04:24Z 49° 30' N, 11° 30' W Click for more
920047 CTD/STD cast 1993-07-04 05:04Z 49° 30' N, 11° 30' W Click for more
920059 CTD/STD cast 1993-07-09 17:54Z 48° 20' N, 11° 0' W Click for more
920060 CTD/STD cast 1993-07-09 18:28Z 48° 20' N, 11° 0' W Click for more
920072 CTD/STD cast 1993-07-10 07:27Z 47° 33' N, 8° 33' W Click for more
920084 CTD/STD cast 1993-07-10 07:58Z 47° 33' N, 8° 33' W Click for more
920096 CTD/STD cast 1993-07-05 13:02Z 49° 27' N, 10° 32' W Click for more
920103 CTD/STD cast 1993-07-05 15:17Z 49° 27' N, 10° 32' W Click for more
920115 CTD/STD cast 1993-07-05 19:04Z 49° 27' N, 10° 31' W Click for more
920127 CTD/STD cast 1993-07-07 04:33Z 48° 39' N, 11° 0' W Click for more
920139 CTD/STD cast 1993-07-07 05:13Z 48° 40' N, 11° 0' W Click for more
920140 CTD/STD cast 1993-07-07 11:54Z 48° 40' N, 11° 30' W Click for more
920152 CTD/STD cast 1993-07-07 12:26Z 48° 40' N, 11° 30' W Click for more
920164 CTD/STD cast 1993-07-08 04:30Z 48° 40' N, 11° 30' W Click for more
920176 CTD/STD cast 1993-07-08 05:00Z 48° 40' N, 11° 31' W Click for more
920188 CTD/STD cast 1993-06-28 19:29Z 49° 30' N, 11° 30' W Click for more
920207 CTD/STD cast 1993-06-29 01:09Z 49° 25' N, 11° 59' W Click for more
920219 CTD/STD cast 1993-06-29 02:06Z 49° 25' N, 11° 59' W Click for more
920220 CTD/STD cast 1993-06-29 08:22Z 49° 19' N, 12° 29' W Click for more
920232 CTD/STD cast 1993-06-29 09:02Z 49° 20' N, 12° 31' W Click for more
920244 CTD/STD cast 1993-06-29 14:29Z 49° 11' N, 12° 56' W Click for more
920256 CTD/STD cast 1993-06-29 15:13Z 49° 10' N, 12° 57' W Click for more
920268 CTD/STD cast 1993-06-30 01:23Z 49° 0' N, 13° 30' W Click for more
920281 CTD/STD cast 1993-06-30 03:09Z 49° 1' N, 13° 31' W Click for more
1268158 Bottle station 1993-07-05 04:15Z 49° 30' N, 10° 31' W Click for more
1268171 Bottle station 1993-07-04 04:48Z 49° 30' N, 11° 29' W Click for more
1268183 Bottle station 1993-07-03 04:30Z 49° 19' N, 12° 30' W Click for more
1268195 Bottle station 1993-07-02 04:45Z 49° 1' N, 13° 30' W Click for more
1268202 Bottle station 1993-07-01 04:45Z 48° 30' N, 15° 0' W Click for more
1268214 Bottle station 1993-07-07 04:15Z 48° 39' N, 11° 0' W Click for more
1268226 Bottle station 1993-07-08 03:38Z 48° 40' N, 11° 30' W Click for more
1268238 Bottle station 1993-07-10 09:45Z 47° 34' N, 8° 34' W Click for more
1326151 Bottle station 1993-06-28 10:04Z 49° 30' N, 10° 30' W Click for more
1326163 Bottle station 1993-06-28 14:40Z 49° 30' N, 11° 0' W Click for more
1326175 Bottle station 1993-07-05 04:40Z 49° 30' N, 10° 30' W Click for more
1326187 Bottle station 1993-07-05 11:06Z 49° 28' N, 10° 31' W Click for more
1326199 Bottle station 1993-07-05 13:10Z 49° 27' N, 10° 32' W Click for more
1326206 Bottle station 1993-07-05 15:20Z 49° 27' N, 10° 32' W Click for more
1326218 Bottle station 1993-07-05 17:12Z 49° 28' N, 10° 31' W Click for more
1326231 Bottle station 1993-07-05 19:08Z 49° 27' N, 10° 31' W Click for more
1326243 Bottle station 1993-06-28 18:46Z 49° 30' N, 11° 30' W Click for more
1326255 Bottle station 1993-06-28 19:43Z 49° 30' N, 11° 30' W Click for more
1326267 Bottle station 1993-06-29 01:19Z 49° 25' N, 11° 59' W Click for more
1326279 Bottle station 1993-06-29 02:28Z 49° 25' N, 11° 59' W Click for more
1326280 Bottle station 1993-07-04 04:29Z 49° 30' N, 11° 30' W Click for more
1326292 Bottle station 1993-07-04 05:17Z 49° 30' N, 11° 30' W Click for more
1326311 Bottle station 1993-07-04 11:08Z 49° 27' N, 11° 28' W Click for more
1326323 Bottle station 1993-07-04 13:09Z 49° 27' N, 11° 29' W Click for more
1326335 Bottle station 1993-07-04 15:10Z 49° 27' N, 11° 28' W Click for more
1326347 Bottle station 1993-07-04 17:25Z 49° 27' N, 11° 28' W Click for more
1326359 Bottle station 1993-07-04 19:09Z 49° 27' N, 11° 27' W Click for more
1326360 Bottle station 1993-06-29 08:59Z 49° 19' N, 12° 29' W Click for more
1326372 Bottle station 1993-06-29 09:26Z 49° 20' N, 12° 31' W Click for more
1326384 Bottle station 1993-06-29 14:40Z 49° 11' N, 12° 56' W Click for more
1326396 Bottle station 1993-06-29 15:44Z 49° 10' N, 12° 57' W Click for more
1326403 Bottle station 1993-07-03 03:59Z 49° 19' N, 12° 31' W Click for more
1326415 Bottle station 1993-07-03 05:29Z 49° 19' N, 12° 31' W Click for more
1326427 Bottle station 1993-07-03 11:09Z 49° 19' N, 12° 29' W Click for more
1326439 Bottle station 1993-07-03 13:13Z 49° 19' N, 12° 29' W Click for more
1326440 Bottle station 1993-07-03 15:10Z 49° 20' N, 12° 28' W Click for more
1326452 Bottle station 1993-07-03 17:12Z 49° 21' N, 12° 28' W Click for more
1326464 Bottle station 1993-07-03 19:09Z 49° 20' N, 12° 27' W Click for more
1326476 Bottle station 1993-06-30 01:34Z 49° 0' N, 13° 30' W Click for more
1326488 Bottle station 1993-06-30 03:48Z 49° 1' N, 13° 31' W Click for more
1326507 Bottle station 1993-06-30 08:20Z 48° 51' N, 13° 57' W Click for more
1326519 Bottle station 1993-06-30 10:14Z 48° 53' N, 13° 59' W Click for more
1326520 Bottle station 1993-07-02 04:15Z 49° 0' N, 13° 30' W Click for more
1326532 Bottle station 1993-07-02 06:19Z 49° 0' N, 13° 30' W Click for more
1326544 Bottle station 1993-07-02 11:15Z 48° 58' N, 13° 30' W Click for more
1326556 Bottle station 1993-07-02 13:36Z 48° 58' N, 13° 30' W Click for more
1326568 Bottle station 1993-07-02 15:07Z 48° 58' N, 13° 31' W Click for more
1326581 Bottle station 1993-07-02 17:30Z 48° 58' N, 13° 31' W Click for more
1326593 Bottle station 1993-07-02 19:22Z 48° 58' N, 13° 31' W Click for more
1326600 Bottle station 1993-06-30 18:16Z 48° 30' N, 15° 0' W Click for more
1326612 Bottle station 1993-06-30 20:23Z 48° 30' N, 15° 1' W Click for more
1326624 Bottle station 1993-07-01 04:04Z 48° 30' N, 15° 0' W Click for more
1326636 Bottle station 1993-07-01 06:08Z 48° 30' N, 15° 0' W Click for more
1326648 Bottle station 1993-07-01 11:53Z 48° 30' N, 14° 55' W Click for more
1326661 Bottle station 1993-07-01 13:18Z 48° 28' N, 14° 56' W Click for more
1326673 Bottle station 1993-07-01 15:19Z 48° 28' N, 14° 55' W Click for more
1326685 Bottle station 1993-07-01 17:14Z 48° 28' N, 14° 55' W Click for more
1326697 Bottle station 1993-07-01 19:10Z 48° 28' N, 14° 56' W Click for more
1326704 Bottle station 1993-07-07 04:40Z 48° 39' N, 11° 0' W Click for more
1326716 Bottle station 1993-07-07 05:40Z 48° 40' N, 11° 0' W Click for more
1326728 Bottle station 1993-07-07 12:00Z 48° 40' N, 11° 30' W Click for more
1326741 Bottle station 1993-07-07 13:16Z 48° 40' N, 11° 30' W Click for more
1326753 Bottle station 1993-07-08 04:37Z 48° 40' N, 11° 30' W Click for more
1326765 Bottle station 1993-07-08 05:53Z 48° 40' N, 11° 31' W Click for more
1326777 Bottle station 1993-07-08 11:20Z 48° 40' N, 12° 0' W Click for more
1326789 Bottle station 1993-07-08 12:18Z 48° 40' N, 12° 0' W Click for more
1326790 Bottle station 1993-07-09 03:08Z 48° 20' N, 11° 59' W Click for more
1326808 Bottle station 1993-07-09 05:46Z 48° 20' N, 12° 0' W Click for more
1326821 Bottle station 1993-07-09 12:49Z 48° 19' N, 11° 30' W Click for more
1326833 Bottle station 1993-07-09 14:22Z 48° 19' N, 11° 30' W Click for more
1326845 Bottle station 1993-07-09 18:02Z 48° 20' N, 11° 0' W Click for more
1326857 Bottle station 1993-07-09 19:04Z 48° 20' N, 11° 0' W Click for more
1326869 Bottle station 1993-07-10 07:34Z 47° 33' N, 8° 33' W Click for more
1326870 Bottle station 1993-07-10 08:29Z 47° 33' N, 8° 33' W Click for more
1639110 Bottle station 1993-07-05 04:15Z 49° 30' N, 10° 31' W Click for more
1639122 Bottle station 1993-06-29 05:23Z 49° 26' N, 11° 59' W Click for more
1639134 Bottle station 1993-07-04 04:48Z 49° 30' N, 11° 29' W Click for more
1639146 Bottle station 1993-07-03 04:30Z 49° 19' N, 12° 30' W Click for more
1639158 Bottle station 1993-07-02 04:45Z 49° 1' N, 13° 30' W Click for more
1639171 Bottle station 1993-07-01 04:45Z 48° 30' N, 15° 0' W Click for more
1639183 Bottle station 1993-07-07 04:15Z 48° 39' N, 11° 0' W Click for more
1639195 Bottle station 1993-07-08 03:38Z 48° 40' N, 11° 30' W Click for more
1639202 Bottle station 1993-07-09 04:54Z 48° 19' N, 12° 0' W Click for more
1639214 Bottle station 1993-07-05 04:40Z 49° 30' N, 10° 30' W Click for more
1639226 Bottle station 1993-07-04 04:29Z 49° 30' N, 11° 30' W Click for more
1639238 Bottle station 1993-07-03 03:59Z 49° 19' N, 12° 31' W Click for more
1639251 Bottle station 1993-07-02 04:15Z 49° 0' N, 13° 30' W Click for more
1639263 Bottle station 1993-07-01 04:04Z 48° 30' N, 15° 0' W Click for more
1639275 Bottle station 1993-07-07 04:40Z 48° 39' N, 11° 0' W Click for more
1639287 Bottle station 1993-07-08 04:37Z 48° 40' N, 11° 30' W Click for more
1639299 Bottle station 1993-07-09 03:08Z 48° 20' N, 11° 59' W Click for more

Project Database

# Events Gear Type Parameters Held
67 CTD frame plus rosette sampler Phytoplankton generic biomass in water bodies
Dissolved amino acid concentrations in the water column
Ammonium and ammonia concentration parameters in water bodies
Dissolved total and organic nitrogen concentrations in the water column
Particulate total and organic carbon concentrations in the water column
Particulate total and organic nitrogen concentrations in the water column
Dissolved total or organic phosphorus concentration in the water column
Density of the water column
Chlorophyll pigment concentrations in water bodies
Particulate total and organic phosphorus concentrations in the water column
Water body lipid concentrations
Alkalinity, acidity and pH of the water column
Silicate concentration parameters in the water column
Microzooplankton non taxonomy-related biomass expressed as carbon per unit volume of the water column
Dissolved organic carbon concentration in the water column
Concentration of carbohydrates, phenols, alkanols (alcohols), aldehydes and ketones in water bodies
Salinity of the water column
Concentration of suspended particulate material in the water column
Nitrate concentration parameters in the water column
Temperature of the water column
Carotenoid and flavenoid pigment concentrations in water bodies
Microzooplankton generic abundance in water bodies
Phytoplankton generic abundance in water bodies
Nitrite concentration parameters in the water column
Phosphate concentration parameters in the water column
Dissolved oxygen parameters in the water column
Phaeopigment concentrations in the water column
22 Water bottle hydrocast
Ammonium and ammonia concentration parameters in water bodies
Dissolved total and organic nitrogen concentrations in the water column
Particulate total and organic carbon concentrations in the water column
Particulate total and organic nitrogen concentrations in the water column
Bacteria generic abundance in water bodies
Dissolved total or organic phosphorus concentration in the water column
Bacterial production in the water column
Phytoplankton taxonomic abundance in water bodies
Chlorophyll pigment concentrations in water bodies
Primary production in the water column
Metadata parameters
Silicate concentration parameters in the water column
Alkalinity, acidity and pH of the water column
Salinity of the water column
Concentration of suspended particulate material in the water column
Microzooplankton grazing
Nitrate concentration parameters in the water column
Phaeopigment concentrations in the water column
Nitrite concentration parameters in the water column
Phosphate concentration parameters in the water column
Regenerated production in water bodies
New production in water bodies
Dissolved oxygen parameters in the water column
12 Multicorer
Sediment water content, porosity and surface area
Concentrations of biopolymers in sediment
Sediment lipid concentrations
Unclassified pigment concentrations in sediment
Concentration of proteins in sediment
14 Apstein opening-closing mesh zooplankton net
7 In situ productivity incubations

Note: Parameter terms are taken from the BODC Parameter Discovery Vocabulary XML (SKOS)

References

Track Charts

Track Chart

Reports

Cruise Report